WA1UHF Weather Reports


Display with metric or nautical units.
time (UTC)temp
F
wind
direction
speed
MPH
gust
MPH
rain 1hr
in
rain 24hr
in
rain mn
in
humidity
%
barometer
mb
20260507084551 47 0 0.0 2.0 0.01 0.65 0.12 96 1006.0
20260507083046 47 321 0.0 3.0 0.01 0.65 0.12 95 1005.9
20260507081545 48 0 1.0 3.0 0.01 0.65 0.12 95 1005.7
20260507080045 48 9 1.0 6.0 0.01 0.65 0.12 96 1005.4
20260507074542 49 0 0.0 2.0 0.00 0.64 0.11 97 1005.6
20260507073048 49 0 0.0 2.0 0.00 0.64 0.11 97 1005.6
20260507071604 49 32 0.0 3.0 0.00 0.64 0.11 96 1005.2
20260507070046 49 0 0.0 3.0 0.00 0.64 0.11 96 1005.3
20260507064545 50 304 1.0 5.0 0.00 0.64 0.11 96 1004.8
20260507063045 50 0 1.0 3.0 0.00 0.64 0.11 97 1004.8
20260507061555 50 0 0.0 0.0 0.00 0.64 0.11 97 1004.6
20260507060049 50 0 0.0 0.0 0.01 0.64 0.11 97 1004.1
20260507054546 50 0 0.0 2.0 0.04 0.64 0.11 97 1004.4
20260507053111 50 0 0.0 2.0 0.08 0.64 0.11 97 1004.5
20260507051550 50 319 0.0 4.0 0.10 0.64 0.11 96 1004.8
20260507050048 51 294 0.0 4.0 0.10 0.63 0.10 96 1004.6
20260507044547 51 19 1.0 10.0 0.06 0.58 0.06 96 1004.9
20260507043047 52 0 3.0 8.0 0.04 0.56 0.03 96 1004.7
20260507041547 52 64 2.0 7.0 0.05 0.54 0.01 96 1004.3
20260507040046 53 54 2.0 7.0 0.04 0.52 0.00 98 1004.4
20260507034544 53 0 1.0 4.0 0.04 0.52 0.52 98 1004.4
20260507033050 53 0 0.0 5.0 0.04 0.52 0.52 98 1004.3
20260507031551 53 199 2.0 6.0 0.01 0.49 0.49 97 1004.0
20260507030047 53 215 2.0 4.0 0.02 0.49 0.49 98 1004.1
20260507024545 53 265 1.0 5.0 0.04 0.49 0.49 98 1003.9
20260507023041 53 193 1.0 10.0 0.06 0.48 0.48 97 1003.9
20260507021544 53 232 2.0 7.0 0.07 0.48 0.48 97 1004.0
20260507020048 53 277 2.0 8.0 0.06 0.47 0.47 97 1004.3
20260507014551 54 186 3.0 9.0 0.04 0.45 0.45 97 1004.4
20260507013050 54 180 2.0 11.0 0.01 0.42 0.42 97 1004.6
20260507011547 54 223 2.0 11.0 0.00 0.41 0.41 97 1004.7
20260507010051 54 252 2.0 17.0 0.00 0.41 0.41 97 1005.0
20260507004549 54 217 3.0 11.0 0.00 0.41 0.41 97 1005.0
20260507003046 55 235 3.0 10.0 0.00 0.41 0.41 97 1005.2
20260507001547 55 198 3.0 11.0 0.00 0.41 0.41 97 1005.0
20260507000047 55 217 4.0 15.0 0.00 0.41 0.41 97 1005.0
20260506234544 55 327 2.0 11.0 0.01 0.41 0.41 97 1005.2
20260506233055 55 201 3.0 11.0 0.01 0.41 0.41 97 1005.3
20260506231548 54 308 5.0 16.0 0.01 0.41 0.41 97 1005.3
20260506230047 54 85 3.0 11.0 0.01 0.41 0.41 97 1005.5
20260506224544 54 265 3.0 10.0 0.00 0.40 0.40 97 1005.6
20260506223046 54 266 3.0 12.0 0.02 0.40 0.40 96 1005.8
20260506221545 54 163 3.0 15.0 0.04 0.40 0.40 96 1005.9
20260506220111 54 220 1.0 7.0 0.07 0.40 0.40 96 1005.9
20260506214549 54 149 2.0 9.0 0.08 0.40 0.40 96 1006.0
20260506213045 54 165 2.0 16.0 0.08 0.38 0.38 96 1006.1
20260506211545 54 205 1.0 9.0 0.10 0.36 0.36 96 1006.4
20260506210047 55 136 1.0 12.0 0.09 0.33 0.33 96 1006.4
20260506204548 55 236 3.0 9.0 0.14 0.32 0.32 95 1006.5
20260506203048 55 247 4.0 12.0 0.16 0.29 0.29 95 1006.5
20260506201548 55 0 3.0 10.0 0.18 0.26 0.26 96 1006.7
20260506200049 55 0 1.0 8.0 0.21 0.24 0.24 95 1006.7
20260506194544 55 136 2.0 9.0 0.17 0.18 0.18 95 1006.9
20260506193042 56 214 2.0 7.0 0.13 0.13 0.13 94 1007.4
20260506191552 56 205 2.0 10.0 0.08 0.08 0.08 92 1006.9
20260506190046 57 238 4.0 11.0 0.03 0.03 0.03 91 1006.9
20260506184550 57 160 5.0 14.0 0.01 0.01 0.01 88 1006.8
20260506183045 59 289 5.0 13.0 0.00 0.00 0.00 83 1006.9
20260506181549 60 198 4.0 14.0 0.00 0.00 0.00 81 1006.8
20260506180110 60 154 5.0 13.0 0.00 0.00 0.00 80 1007.0
20260506174545 60 207 3.0 18.0 0.00 0.00 0.00 81 1007.2
20260506173054 61 117 2.0 11.0 0.00 0.00 0.00 80 1007.5
20260506171546 61 182 4.0 11.0 0.00 0.00 0.00 80 1007.8
20260506170043 61 94 2.0 11.0 0.00 0.00 0.00 81 1007.9
20260506164547 61 209 4.0 14.0 0.00 0.00 0.00 81 1008.2
20260506163047 61 187 3.0 11.0 0.00 0.00 0.00 80 1008.5
20260506161554 61 115 3.0 9.0 0.00 0.00 0.00 81 1008.8
20260506160046 61 174 5.0 10.0 0.00 0.00 0.00 80 1008.8
20260506154551 61 211 2.0 14.0 0.00 0.00 0.00 80 1009.0
20260506153047 62 133 4.0 15.0 0.00 0.00 0.00 80 1008.8
20260506151547 61 251 3.0 13.0 0.00 0.00 0.00 81 1008.8
20260506150046 61 208 3.0 17.0 0.00 0.00 0.00 80 1008.6
20260506144559 62 181 3.0 12.0 0.00 0.00 0.00 79 1008.3
20260506143040 61 230 2.0 10.0 0.00 0.00 0.00 81 1008.7
20260506141550 61 202 4.0 12.0 0.00 0.00 0.00 80 1009.0
20260506140046 60 0 3.0 10.0 0.00 0.00 0.00 81 1009.3
20260506134546 60 149 2.0 9.0 0.00 0.00 0.00 81 1009.3
20260506133057 60 140 1.0 6.0 0.00 0.00 0.00 82 1009.1
20260506131539 59 130 3.0 9.0 0.00 0.00 0.00 81 1008.9
20260506130049 59 229 3.0 8.0 0.00 0.00 0.00 83 1009.2
20260506124546 58 0 3.0 8.0 0.00 0.00 0.00 83 1009.1
20260506123046 57 207 1.0 6.0 0.00 0.00 0.00 85 1009.2
20260506121546 56 117 1.0 8.0 0.00 0.00 0.00 85 1009.3
20260506120048 56 169 2.0 8.0 0.00 0.00 0.00 85 1009.7
20260506114547 55 90 3.0 9.0 0.00 0.00 0.00 84 1010.1
20260506113049 55 207 2.0 7.0 0.00 0.00 0.00 85 1010.1
20260506111546 55 194 2.0 9.0 0.00 0.00 0.00 85 1010.1
20260506110046 54 131 2.0 7.0 0.00 0.00 0.00 86 1009.7
20260506104554 54 0 0.0 1.0 0.00 0.00 0.00 87 1009.9
20260506103049 53 0 0.0 0.0 0.00 0.00 0.00 87 1009.8
20260506101547 53 0 0.0 3.0 0.00 0.00 0.00 88 1009.5
20260506100045 52 0 0.0 2.0 0.00 0.00 0.00 88 1009.8
20260506094544 52 111 0.0 4.0 0.00 0.00 0.00 88 1009.9
20260506093047 52 0 0.0 4.0 0.00 0.00 0.00 88 1009.7
20260506091542 52 0 0.0 2.0 0.00 0.00 0.00 88 1009.6
20260506090046 52 0 0.0 2.0 0.00 0.00 0.00 88 1009.4